Meacham, OR

10:42 AM PDT on July 20, 2017 (GMT -0700)
Meacham

Weather History for KMEH - November, 2012

Change the Weather History Date:

Saturday, November 17, 2012

  Actual Average Record
Temperature  
Mean Temperature 40 °F -  
Max Temperature 48 °F 41 °F 57 °F (2008)
Min Temperature 32 °F 25 °F 5 °F (2014)
Degree Days  
Heating Degree Days 25    
Moisture  
Dew Point 34 °F    
Average Humidity 83    
Maximum Humidity 100    
Minimum Humidity 61    
Precipitation  
Precipitation 0.39 in - - ()
Sea Level Pressure  
Sea Level Pressure 29.73 in    
Wind  
Wind Speed 1 mph (West)    
Max Wind Speed 10 mph    
Max Gust Speed 24 mph    
Visibility 6 miles    
Events Fog , Rain , Snow    
Averages and records for this station are not official NWS values.
T = Trace of Precipitation, MM = Missing Value Source: NWS Daily Summary

Daily Weather History Graph

Daily Weather History Graph

Search for Another Location

Airport or City:

Trip Planner

Search our weather history database for the weather conditions in past years. The results will help you decide how hot, cold, wet, or windy it might be!

Date:

Astronomy

Nov. 17, 2012 Rise Set
Actual Time 6:56 AM PST 4:20 PM PST
Civil Twilight 6:23 AM PST 4:53 PM PST
Nautical Twilight 5:47 AM PST 5:29 PM PST
Astronomical Twilight 5:12 AM PST 6:04 PM PST
Moon 10:44 AM PST (11/17) 8:37 PM PST (11/17)
Length of Visible Light 10h 29m
Length of Day
9h 24m
Waxing Crescent, 21% of the Moon is Illuminated
Nov 17
Waxing Crescent
Nov 20
First Quarter
Nov 28
Full
Dec 6
Last Quarter
Dec 13
New

Hourly Weather History & Observations

Time (PST) Temp. Windchill Dew Point Humidity Pressure Visibility Wind Dir Wind Speed Gust Speed Precip Events Conditions
12:56 AM 42.1 °F - 36.0 °F 79% 29.87 in 10.0 mi Calm Calm - 0.00 in   Overcast
1:56 AM 41.0 °F - 35.1 °F 79% 29.86 in 10.0 mi Calm Calm - N/A   Overcast
2:56 AM 42.1 °F - 35.1 °F 76% 29.84 in 10.0 mi Calm Calm - N/A   Overcast
3:56 AM 42.1 °F - 35.1 °F 76% 29.83 in 10.0 mi Calm Calm - N/A   Overcast
4:56 AM 42.1 °F - 35.1 °F 76% 29.82 in 10.0 mi Calm Calm - N/A   Overcast
5:56 AM 43.0 °F - 35.1 °F 74% 29.80 in 10.0 mi Calm Calm - N/A   Clear
6:56 AM 42.1 °F - 35.1 °F 76% 29.80 in 10.0 mi Calm Calm - N/A   Partly Cloudy
7:56 AM 43.0 °F 41.3 °F 34.0 °F 71% 29.78 in 10.0 mi Variable 3.5 mph - N/A   Scattered Clouds
8:56 AM 45.0 °F - 35.1 °F 68% 29.76 in 10.0 mi Calm Calm - N/A   Mostly Cloudy
9:56 AM 45.0 °F - 35.1 °F 68% 29.72 in 10.0 mi Calm Calm - N/A   Scattered Clouds
10:56 AM 48.9 °F - 36.0 °F 61% 29.68 in 10.0 mi Variable 6.9 mph - N/A   Partly Cloudy
11:56 AM 46.9 °F - 37.0 °F 68% 29.65 in 10.0 mi Variable 3.5 mph - 0.00 in   Overcast
12:56 PM 45.0 °F 42.6 °F 37.0 °F 74% 29.63 in 10.0 mi Variable 4.6 mph - N/A   Mostly Cloudy
1:56 PM 45.0 °F - 37.9 °F 76% 29.65 in 10.0 mi Calm Calm - N/A   Overcast
2:56 PM 45.0 °F 43.5 °F 37.9 °F 76% 29.62 in 10.0 mi Variable 3.5 mph - 0.00 in   Mostly Cloudy
3:56 PM 44.1 °F 41.5 °F 37.9 °F 79% 29.62 in 10.0 mi Variable 4.6 mph - N/A   Mostly Cloudy
4:56 PM 44.1 °F - 37.9 °F 79% 29.61 in 10.0 mi Calm Calm - N/A   Scattered Clouds
5:56 PM 44.1 °F 42.5 °F 37.9 °F 79% 29.61 in 10.0 mi Variable 3.5 mph - N/A   Overcast
6:39 PM 35.6 °F 28.0 °F 33.8 °F 93% 29.66 in 0.8 mi West 10.4 mph 24.2 mph N/A   Overcast
6:56 PM 35.1 °F 31.0 °F 34.0 °F 96% 29.70 in 2.0 mi Variable 4.6 mph - N/A   Overcast
7:03 PM 35.6 °F 29.9 °F 33.8 °F 93% 29.67 in 1.0 mi Variable 6.9 mph - N/A   Mist
7:15 PM 33.8 °F - 33.8 °F 100% 29.67 in 3.0 mi Calm Calm - 0.00 in Rain Rain
7:35 PM 33.8 °F - 32.0 °F 93% 29.67 in 1.8 mi Calm Calm - 0.04 in Snow Light Snow
7:43 PM 33.8 °F - 32.0 °F 93% 29.68 in 1.2 mi Calm Calm - 0.06 in Snow Light Snow
7:56 PM 33.1 °F - 32.0 °F 96% 29.72 in 1.0 mi Calm Calm - 0.09 in Snow Light Snow
8:31 PM 33.8 °F - 32.0 °F 93% 29.70 in 0.8 mi Calm Calm - 0.05 in Snow Light Snow
8:56 PM 33.1 °F - 32.0 °F 96% 29.74 in 0.8 mi Calm Calm - 0.12 in Snow Light Snow
9:35 PM 33.8 °F 30.8 °F 30.2 °F 87% 29.72 in 1.0 mi Variable 3.5 mph - 0.06 in Snow Light Snow
9:50 PM 33.8 °F 30.8 °F 30.2 °F 87% 29.72 in 0.8 mi Variable 3.5 mph - 0.08 in Snow Light Snow
9:56 PM 33.1 °F - 30.9 °F 92% 29.76 in 1.0 mi Calm Calm - 0.09 in Snow Light Snow
10:20 PM 32.0 °F 28.7 °F 30.2 °F 93% 29.74 in 0.5 mi Variable 3.5 mph - 0.03 in Fog , Snow Snow
10:56 PM 32.0 °F - 30.9 °F 96% 29.78 in 2.5 mi Calm Calm - 0.09 in Snow Light Snow
11:03 PM 33.8 °F - 30.2 °F 87% 29.75 in 7.0 mi Calm Calm - 0.00 in Snow Light Snow
11:13 PM 32.0 °F - 30.2 °F 93% 29.76 in 9.0 mi Calm Calm - 0.00 in Snow Light Snow
11:56 PM 32.0 °F - 30.9 °F 96% 29.83 in 10.0 mi Calm Calm - 0.00 in   Overcast